This is the latest recevied weather packets stored in our database for station/object KN6KS. If no packets are shown the sender has not sent any weather packets the latest 10 day(s).
| Time | Temp. | Humidity | Pressure | Rain* | Wind** | Luminosity | Snow |
|---|---|---|---|---|---|---|---|
| 1777778669 | 22.22° C | 42% | 1010.5 hPa | 0 mm | - | 0 W/m² | - |
| 1777778366 | 22.22° C | 40% | 1010 hPa | 0 mm | - | 0 W/m² | - |
| 1777778064 | 22.22° C | 38% | 1010.2 hPa | 0 mm | - | 0 W/m² | - |
| 1777777760 | 22.78° C | 36% | 1010 hPa | 0 mm | - | 0 W/m² | - |
| 1777777457 | 22.78° C | 36% | 1010 hPa | 0 mm | - | 0 W/m² | - |
| 1777777154 | 22.78° C | 37% | 1010 hPa | 0 mm | - | 0 W/m² | - |
| 1777776851 | 22.78° C | 39% | 1010.1 hPa | 0 mm | - | 0 W/m² | - |
| 1777776548 | 22.78° C | 39% | 1009.8 hPa | 0 mm | - | 0 W/m² | - |
| 1777776244 | 22.78° C | 37% | 1009.5 hPa | 0 mm | - | 0 W/m² | - |
| 1777775941 | 23.33° C | 36% | 1009.5 hPa | 0 mm | - | 2 W/m² | - |
| 1777775638 | 23.33° C | 36% | 1009.6 hPa | 0 mm | - | 4 W/m² | - |
| 1777775336 | 23.33° C | 35% | 1009.3 hPa | 0 mm | - | 8 W/m² | - |
| 1777775030 | 23.89° C | 33% | 1009.6 hPa | 0 mm | - | 11 W/m² | - |
| 1777774726 | 23.89° C | 30% | 1009.6 hPa | 0 mm | - | 16 W/m² | - |
| 1777774417 | 24.44° C | 30% | 1009.3 hPa | 0 mm | - | 22 W/m² | - |
| 1777774114 | 24.44° C | 28% | 1009.2 hPa | 0 mm | - | 27 W/m² | - |
| 1777773813 | 24.44° C | 27% | 1009.6 hPa | 0 mm | - | 33 W/m² | - |
| 1777773509 | 24.44° C | 30% | 1009.6 hPa | 0 mm | - | 39 W/m² | - |
| 1777771085 | 25.56° C | 26% | 1009.2 hPa | 0 mm | - | 112 W/m² | - |
| 1777770782 | 25.56° C | 26% | 1009.3 hPa | 0 mm | - | 141 W/m² | - |
| 1777770478 | 25.56° C | 25% | 1009 hPa | 0 mm | - | 161 W/m² | - |
| 1777769570 | 26.67° C | 25% | 1009.2 hPa | 0 mm | - | 175 W/m² | - |
| 1777768660 | 26.67° C | 23% | 1008.9 hPa | 0 mm | - | 260 W/m² | - |
| 1777768358 | 26.67° C | 23% | 1009.3 hPa | 0 mm | - | 288 W/m² | - |
| 1777768054 | 26.67° C | 23% | 1009.3 hPa | 0 mm | - | 269 W/m² | - |
* Rain latest hour (hover to see other rain measurements)
** Current wind speed in m/s (hover to see current wind gust speed)